Location: *
(34.6903°N, 135.5184°E)
Time: 03:46:25
(UTC+00:00)

Hubble Space Telescope - Pass Details

Date: 22 September 2019
Orbit: 536 x 540 km, 28.5° (Epoch: 16 October)

Event Time Altitude Azimuth Distance (km) Brightness Sun altitude
Exits shadow 18:34:29 11° 142° (SE) 1,704 3.5 -27.3°
Drops below altitude 10° 18:34:43 10° 140° (SE) 1,776 3.6 -27.2°
Sets 18:37:17 0° 126° (SE) 2,665 4.8 -26.7°
